Location: Banff
(51.1667°N, 115.5667°W)
Time: 10:27:44
(UTC+00:00)

SR - Pass Details

Date: 30 November 2020
Orbit: 575 x 880 km, 66.7° (Epoch: 19 January)

Event Time Altitude Azimuth Distance (km) Brightness Sun altitude
Rises 03:51:32 0° 256° (WSW) 2,865 ? -38.6°
Reaches altitude 10° 03:54:01 10° 270° (W) 2,001 ? -38.9°
Enters shadow 03:54:31 13° 274° (W) 1,846 ? -39.0°
